Location: Lafig�re
(44.4503°N, 4.0357°E)
Time: 20:27:18
(UTC+00:00)

Cosmos 1092 Rocket - Pass Details

Date: 29 January 2021
Orbit: 954 x 995 km, 83.0° (Epoch: 07 March)

Event Time Altitude Azimuth Distance (km) Brightness Sun altitude
Rises 03:35:21 0° 1° (N) 3,646 7.1 -37.5°
Reaches altitude 10° 03:38:21 10° 14° (NNE) 2,699 6.5 -37.0°
Maximum altitude 03:43:22 26° 69° (ENE) 1,819 5.9 -36.1°
Drops below altitude 10° 03:48:23 10° 124° (SE) 2,703 6.8 -35.2°
Sets 03:51:22 0° 137° (SE) 3,652 7.4 -34.7°
